ES'HAIL 1 (39233 NORAD) Tracking and Keplerian Element Data

This shows tracking and keplerian element data for the satellite.

Feedback or suggestion? Click here.




ElementValue
Catalog39233
NameES'HAIL 1
Epoch Orbit4162
Epoch Day34.68861294
Epoch Year2025
RAAN357.7793
Inclination0.0498
Eccentricity0.0002103
Argument of Perigee315.6021
Mean Anonmoly94.0806
Mean Motion1.00270713
Decay Rate1.47E-06
L11 39233U 13044A 25034.68861294 .00000147 00000+0 00000+0 0 9990
L22 39233 0.0498 357.7793 0002103 315.6021 94.0806 1.00270713 41629



Live tracking and technical data element details for ES'HAIL 1 (NORAD 39233). ES'HAIL 1 can be tracked NOW for your location showing map with azimuth and elevation plus other details from your city location.







IsCatalogInMostPopularTable: catalog: 39233, numindb: 1850
Update: records affected: 1



GetName: 39233 ES'HAIL 1

Hit Count: updated at: Thu, 19 Jun 2025 08:50:09 GMT